Time,TemperatureF,DewpointF,PressureIn,WindDirection,WindDirectionDegrees,WindSpeedMPH,WindSpeedGustMPH,Humidity,HourlyPrecipIn,Conditions,Clouds,dailyrainin,SoftwareType,DateUTC
2013-03-01 00:02:00,24.0,19.0,30.21,NE,39,15.0,20.0,80,0.00,,,0.00,,2013-03-01 05:02:00,
2013-03-01 00:11:00,24.0,19.0,30.21,NE,39,15.0,20.0,80,0.00,,,0.00,,2013-03-01 05:11:00,
2013-03-01 00:22:00,24.0,19.0,30.21,NNE,27,13.0,13.0,80,0.00,,,0.00,,2013-03-01 05:22:00,
2013-03-01 00:32:00,24.0,19.0,30.21,NNE,27,13.0,13.0,80,0.00,,,0.00,,2013-03-01 05:32:00,
2013-03-01 00:42:00,24.0,19.0,30.21,NNE,27,13.0,13.0,80,0.00,,,0.00,,2013-03-01 05:42:00,
2013-03-01 00:52:00,24.0,18.0,30.20,NE,40,17.0,20.0,79,0.00,,,0.00,,2013-03-01 05:52:00,
2013-03-01 01:02:00,24.0,19.0,30.20,NNE,26,12.0,20.0,80,0.00,,,0.00,,2013-03-01 06:02:00,
2013-03-01 01:11:00,23.0,18.0,30.21,NE,51,18.0,23.0,80,0.00,,,0.00,,2013-03-01 06:11:00,
2013-03-01 01:22:00,23.0,18.0,30.21,NE,51,18.0,23.0,80,0.00,,,0.00,,2013-03-01 06:22:00,
2013-03-01 01:32:00,23.0,18.0,30.21,NE,51,18.0,23.0,80,0.00,,,0.00,,2013-03-01 06:32:00,
2013-03-01 01:42:00,23.0,18.0,30.21,NE,51,18.0,23.0,80,0.00,,,0.00,,2013-03-01 06:42:00,
2013-03-01 01:52:00,22.0,17.0,30.22,NE,44,11.0,18.0,82,0.00,,,0.00,,2013-03-01 06:52:00,
2013-03-01 02:01:00,22.0,17.0,30.22,NE,34,18.0,18.0,82,0.00,,,0.00,,2013-03-01 07:01:00,
2013-03-01 02:11:00,22.0,17.0,30.22,NE,34,18.0,18.0,82,0.00,,,0.00,,2013-03-01 07:11:00,
2013-03-01 02:22:00,22.0,17.0,30.23,NNE,27,16.0,17.0,81,0.00,,,0.00,,2013-03-01 07:22:00,
2013-03-01 02:32:00,22.0,18.0,30.22,NE,48,14.0,22.0,83,0.00,,,0.00,,2013-03-01 07:32:00,
2013-03-01 02:42:00,22.0,18.0,30.22,NE,48,14.0,22.0,83,0.00,,,0.00,,2013-03-01 07:42:00,
2013-03-01 02:52:00,21.0,16.0,30.23,NE,40,13.0,18.0,82,0.00,,,0.00,,2013-03-01 07:52:00,
2013-03-01 03:01:00,21.0,17.0,30.23,NE,39,12.0,23.0,83,0.00,,,0.00,,2013-03-01 08:01:00,
2013-03-01 03:11:00,21.0,17.0,30.23,NE,39,12.0,23.0,83,0.00,,,0.00,,2013-03-01 08:11:00,
2013-03-01 03:22:00,21.0,17.0,30.23,NE,45,16.0,23.0,83,0.00,,,0.00,,2013-03-01 08:22:00,
2013-03-01 03:32:00,21.0,17.0,30.23,NE,45,16.0,23.0,83,0.00,,,0.00,,2013-03-01 08:32:00,
2013-03-01 03:42:00,21.0,17.0,30.23,NE,45,16.0,23.0,83,0.00,,,0.00,,2013-03-01 08:42:00,
2013-03-01 03:52:00,21.0,17.0,30.23,NNE,16,13.0,17.0,85,0.00,,,0.00,,2013-03-01 08:52:00,
2013-03-01 04:02:00,20.0,16.0,30.24,NNE,27,14.0,18.0,85,0.00,,,0.00,,2013-03-01 09:02:00,
2013-03-01 04:12:00,20.0,16.0,30.24,NNE,27,14.0,18.0,85,0.00,,,0.00,,2013-03-01 09:12:00,
2013-03-01 04:22:00,20.0,16.0,30.24,NE,37,15.0,18.0,84,0.00,,,0.00,,2013-03-01 09:22:00,
2013-03-01 04:32:00,20.0,16.0,30.24,NNE,15,11.0,23.0,85,0.00,,,0.00,,2013-03-01 09:32:00,
2013-03-01 04:42:00,20.0,16.0,30.24,NNE,15,11.0,23.0,85,0.00,,,0.00,,2013-03-01 09:42:00,
2013-03-01 04:52:00,20.0,16.0,30.25,NE,49,14.0,15.0,85,0.00,,,0.00,,2013-03-01 09:52:00,
2013-03-01 05:02:00,20.0,16.0,30.25,NE,49,14.0,15.0,85,0.00,,,0.00,,2013-03-01 10:02:00,
2013-03-01 05:11:00,20.0,16.0,30.25,NE,49,14.0,15.0,85,0.00,,,0.00,,2013-03-01 10:11:00,
2013-03-01 05:22:00,20.0,16.0,30.25,NE,44,16.0,19.0,86,0.00,,,0.00,,2013-03-01 10:22:00,
2013-03-01 05:32:00,20.0,16.0,30.26,NE,35,17.0,19.0,86,0.00,,,0.00,,2013-03-01 10:32:00,
2013-03-01 05:42:00,20.0,16.0,30.26,NE,35,17.0,19.0,86,0.00,,,0.00,,2013-03-01 10:42:00,
2013-03-01 05:52:00,20.0,16.0,30.27,NE,39,12.0,14.0,86,0.00,,,0.00,,2013-03-01 10:52:00,
2013-03-01 06:01:00,20.0,17.0,30.27,NNE,32,15.0,19.0,87,0.00,,,0.00,,2013-03-01 11:01:00,
2013-03-01 06:11:00,20.0,17.0,30.27,NNE,32,15.0,19.0,87,0.00,,,0.00,,2013-03-01 11:11:00,
2013-03-01 06:22:00,20.0,16.0,30.27,NNE,33,11.0,19.0,86,0.00,,,0.00,,2013-03-01 11:22:00,
2013-03-01 06:32:00,20.0,17.0,30.28,NNE,27,9.0,17.0,88,0.00,,,0.00,,2013-03-01 11:32:00,
2013-03-01 06:42:00,20.0,17.0,30.28,NNE,27,9.0,17.0,88,0.00,,,0.00,,2013-03-01 11:42:00,
2013-03-01 06:52:00,20.0,17.0,30.28,NE,48,14.0,17.0,87,0.00,,,0.00,,2013-03-01 11:52:00,
2013-03-01 07:01:00,20.0,16.0,30.28,NE,37,10.0,17.0,86,0.00,,,0.00,,2013-03-01 12:01:00,
2013-03-01 07:11:00,20.0,16.0,30.28,NE,37,10.0,17.0,86,0.00,,,0.00,,2013-03-01 12:11:00,
2013-03-01 07:21:00,20.0,16.0,30.29,NNE,30,12.0,14.0,86,0.00,,,0.00,,2013-03-01 12:21:00,
2013-03-01 07:32:00,20.0,17.0,30.29,NE,42,10.0,20.0,87,0.00,,,0.00,,2013-03-01 12:32:00,
2013-03-01 07:42:00,20.0,17.0,30.29,NE,42,10.0,20.0,87,0.00,,,0.00,,2013-03-01 12:42:00,
2013-03-01 07:52:00,20.0,17.0,30.29,NE,42,14.0,14.0,88,0.00,,,0.00,,2013-03-01 12:52:00,
2013-03-01 08:01:00,20.0,17.0,30.29,NE,42,14.0,14.0,88,0.00,,,0.00,,2013-03-01 13:01:00,
2013-03-01 08:11:00,20.0,17.0,30.29,NE,42,14.0,14.0,88,0.00,,,0.00,,2013-03-01 13:11:00,
2013-03-01 08:21:00,20.0,17.0,30.30,NE,51,8.0,11.0,87,0.00,,,0.00,,2013-03-01 13:21:00,
2013-03-01 08:32:00,20.0,17.0,30.30,NNE,32,12.0,17.0,87,0.00,,,0.00,,2013-03-01 13:32:00,
2013-03-01 08:42:00,20.0,17.0,30.30,NNE,32,12.0,17.0,87,0.00,,,0.00,,2013-03-01 13:42:00,
2013-03-01 08:52:00,20.0,17.0,30.31,NNE,28,10.0,17.0,87,0.00,,,0.00,,2013-03-01 13:52:00,
2013-03-01 09:01:00,20.0,17.0,30.31,NE,41,13.0,22.0,87,0.00,,,0.00,,2013-03-01 14:01:00,
2013-03-01 09:11:00,20.0,17.0,30.31,NE,41,13.0,22.0,87,0.00,,,0.00,,2013-03-01 14:11:00,
2013-03-01 09:21:00,20.0,17.0,30.32,NE,48,13.0,22.0,87,0.00,,,0.00,,2013-03-01 14:21:00,
2013-03-01 09:32:00,19.0,16.0,30.32,NE,53,13.0,17.0,87,0.00,,,0.00,,2013-03-01 14:32:00,
2013-03-01 09:41:00,19.0,16.0,30.32,NE,53,13.0,17.0,87,0.00,,,0.00,,2013-03-01 14:41:00,
2013-03-01 09:52:00,19.0,16.0,30.32,NE,51,16.0,22.0,87,0.00,,,0.00,,2013-03-01 14:52:00,
2013-03-01 10:01:00,19.0,15.0,30.32,NE,47,17.0,22.0,85,0.00,,,0.00,,2013-03-01 15:01:00,
2013-03-01 10:11:00,19.0,15.0,30.33,NNE,32,17.0,17.0,85,0.00,,,0.00,,2013-03-01 15:11:00,
2013-03-01 10:21:00,19.0,15.0,30.33,NNE,32,17.0,17.0,85,0.00,,,0.00,,2013-03-01 15:21:00,
2013-03-01 10:31:00,19.0,15.0,30.33,NNE,32,15.0,18.0,84,0.00,,,0.00,,2013-03-01 15:31:00,
2013-03-01 10:42:00,19.0,15.0,30.33,NNE,32,15.0,18.0,84,0.00,,,0.00,,2013-03-01 15:42:00,
2013-03-01 10:52:00,19.0,15.0,30.33,NNE,30,19.0,20.0,85,0.00,,,0.00,,2013-03-01 15:52:00,
2013-03-01 11:01:00,19.0,15.0,30.33,NE,38,15.0,19.0,85,0.00,,,0.00,,2013-03-01 16:01:00,
2013-03-01 11:11:00,19.0,15.0,30.33,NE,38,15.0,19.0,85,0.00,,,0.00,,2013-03-01 16:11:00,
2013-03-01 11:21:00,19.0,15.0,30.33,NNE,30,15.0,16.0,85,0.00,,,0.00,,2013-03-01 16:21:00,
2013-03-01 11:32:00,19.0,15.0,30.33,NE,44,10.0,20.0,85,0.00,,,0.00,,2013-03-01 16:32:00,
2013-03-01 11:41:00,19.0,15.0,30.33,NE,44,10.0,20.0,85,0.00,,,0.00,,2013-03-01 16:41:00,
2013-03-01 11:52:00,19.0,15.0,30.34,NE,43,20.0,20.0,84,0.00,,,0.00,,2013-03-01 16:52:00,
2013-03-01 12:01:00,19.0,15.0,30.34,NE,43,20.0,20.0,84,0.00,,,0.00,,2013-03-01 17:01:00,
2013-03-01 12:11:00,19.0,15.0,30.34,NE,43,20.0,20.0,84,0.00,,,0.00,,2013-03-01 17:11:00,
2013-03-01 12:21:00,19.0,14.0,30.34,NE,36,17.0,18.0,82,0.00,,,0.00,,2013-03-01 17:21:00,
2013-03-01 12:31:00,19.0,14.0,30.33,NE,37,16.0,21.0,82,0.00,,,0.00,,2013-03-01 17:31:00,
2013-03-01 12:42:00,20.0,15.0,30.33,NE,44,17.0,21.0,79,0.00,,,0.00,,2013-03-01 17:42:00,
2013-03-01 12:52:00,20.0,15.0,30.33,NE,44,17.0,21.0,79,0.00,,,0.00,,2013-03-01 17:52:00,
2013-03-01 13:01:00,20.0,15.0,30.34,NE,46,15.0,21.0,80,0.00,,,0.00,,2013-03-01 18:01:00,
2013-03-01 13:12:00,20.0,15.0,30.34,NE,46,15.0,21.0,80,0.00,,,0.00,,2013-03-01 18:12:00,
2013-03-01 13:22:00,20.0,14.0,30.33,NE,47,12.0,17.0,78,0.00,,,0.00,,2013-03-01 18:22:00,
2013-03-01 13:31:00,20.0,14.0,30.33,NNE,27,13.0,17.0,76,0.00,,,0.00,,2013-03-01 18:31:00,
2013-03-01 13:41:00,20.0,14.0,30.33,NNE,27,13.0,17.0,76,0.00,,,0.00,,2013-03-01 18:41:00,
2013-03-01 13:52:00,21.0,15.0,30.33,NE,49,14.0,17.0,77,0.00,,,0.00,,2013-03-01 18:52:00,
2013-03-01 14:01:00,21.0,15.0,30.33,NNE,32,7.0,17.0,78,0.00,,,0.00,,2013-03-01 19:01:00,
2013-03-01 14:11:00,21.0,15.0,30.33,NNE,32,7.0,17.0,78,0.00,,,0.00,,2013-03-01 19:11:00,
2013-03-01 14:21:00,21.0,15.0,30.33,North,360,4.0,17.0,78,0.00,,,0.00,,2013-03-01 19:21:00,
2013-03-01 14:31:00,21.0,14.0,30.32,North,6,6.0,18.0,74,0.00,,,0.00,,2013-03-01 19:31:00,
2013-03-01 14:42:00,21.0,14.0,30.32,North,6,6.0,18.0,74,0.00,,,0.00,,2013-03-01 19:42:00,
2013-03-01 14:51:00,21.0,13.0,30.32,NNE,30,14.0,14.0,72,0.00,,,0.00,,2013-03-01 19:51:00,
2013-03-01 15:01:00,22.0,15.0,30.32,North,6,11.0,17.0,74,0.00,,,0.00,,2013-03-01 20:01:00,
2013-03-01 15:11:00,22.0,15.0,30.32,North,6,11.0,17.0,74,0.00,,,0.00,,2013-03-01 20:11:00,
2013-03-01 15:21:00,22.0,15.0,30.32,North,359,3.0,8.0,73,0.00,,,0.00,,2013-03-01 20:21:00,
2013-03-01 15:31:00,22.0,15.0,30.32,NNE,17,4.0,10.0,73,0.00,,,0.00,,2013-03-01 20:31:00,
2013-03-01 15:41:00,22.0,15.0,30.32,NNE,17,4.0,10.0,73,0.00,,,0.00,,2013-03-01 20:41:00,
2013-03-01 15:52:00,22.0,15.0,30.32,NE,44,4.0,4.0,74,0.00,,,0.00,,2013-03-01 20:52:00,
2013-03-01 16:01:00,22.0,15.0,30.32,NNE,13,3.0,10.0,74,0.00,,,0.00,,2013-03-01 21:01:00,
2013-03-01 16:11:00,22.0,15.0,30.32,North,3,3.0,9.0,74,0.00,,,0.00,,2013-03-01 21:11:00,
2013-03-01 16:21:00,22.0,15.0,30.32,North,3,3.0,9.0,74,0.00,,,0.00,,2013-03-01 21:21:00,
2013-03-01 16:31:00,22.0,15.0,30.31,North,359,2.0,9.0,73,0.00,,,0.00,,2013-03-01 21:31:00,
2013-03-01 16:41:00,22.0,15.0,30.31,North,359,3.0,5.0,73,0.00,,,0.00,,2013-03-01 21:41:00,
2013-03-01 16:52:00,22.0,15.0,30.31,North,359,3.0,5.0,73,0.00,,,0.00,,2013-03-01 21:52:00,
2013-03-01 17:01:00,21.0,14.0,30.31,NNE,27,5.0,9.0,74,0.00,,,0.00,,2013-03-01 22:01:00,
2013-03-01 17:11:00,22.0,15.0,30.31,North,1,3.0,9.0,73,0.00,,,0.00,,2013-03-01 22:11:00,
2013-03-01 17:21:00,22.0,15.0,30.31,North,1,3.0,9.0,73,0.00,,,0.00,,2013-03-01 22:21:00,
2013-03-01 17:31:00,21.0,14.0,30.32,NNE,25,4.0,9.0,73,0.00,,,0.00,,2013-03-01 22:31:00,
2013-03-01 17:41:00,21.0,14.0,30.32,NNE,25,4.0,9.0,73,0.00,,,0.00,,2013-03-01 22:41:00,
2013-03-01 17:51:00,21.0,14.0,30.32,North,350,3.0,8.0,74,0.00,,,0.00,,2013-03-01 22:51:00,
2013-03-01 18:01:00,21.0,14.0,30.32,North,354,2.0,9.0,74,0.00,,,0.00,,2013-03-01 23:01:00,
2013-03-01 18:11:00,21.0,14.0,30.32,North,354,2.0,9.0,74,0.00,,,0.00,,2013-03-01 23:11:00,
2013-03-01 18:21:00,22.0,15.0,30.32,North,360,3.0,6.0,75,0.00,,,0.00,,2013-03-01 23:21:00,
2013-03-01 18:31:00,22.0,15.0,30.32,North,360,3.0,6.0,75,0.00,,,0.00,,2013-03-01 23:31:00,
2013-03-01 18:41:00,22.0,15.0,30.32,North,360,3.0,6.0,75,0.00,,,0.00,,2013-03-01 23:41:00,
2013-03-01 18:52:00,22.0,15.0,30.32,North,7,3.0,3.0,75,0.00,,,0.00,,2013-03-01 23:52:00,
2013-03-01 19:01:00,22.0,15.0,30.32,North,7,3.0,3.0,75,0.00,,,0.00,,2013-03-02 00:01:00,
2013-03-01 19:11:00,22.0,15.0,30.32,North,7,3.0,3.0,75,0.00,,,0.00,,2013-03-02 00:11:00,
2013-03-01 19:21:00,22.0,15.0,30.32,North,355,2.0,4.0,74,0.00,,,0.00,,2013-03-02 00:21:00,
2013-03-01 19:31:00,22.0,15.0,30.32,NNW,329,3.0,8.0,74,0.00,,,0.00,,2013-03-02 00:31:00,
2013-03-01 19:42:00,22.0,15.0,30.32,NNW,329,3.0,8.0,74,0.00,,,0.00,,2013-03-02 00:42:00,
2013-03-01 19:52:00,22.0,15.0,30.32,NNE,16,3.0,6.0,73,0.00,,,0.00,,2013-03-02 00:52:00,
2013-03-01 20:01:00,22.0,15.0,30.32,North,360,2.0,10.0,74,0.00,,,0.00,,2013-03-02 01:01:00,
2013-03-01 20:11:00,22.0,15.0,30.32,North,360,2.0,10.0,74,0.00,,,0.00,,2013-03-02 01:11:00,
2013-03-01 20:21:00,22.0,15.0,30.31,North,359,4.0,8.0,73,0.00,,,0.00,,2013-03-02 01:21:00,
2013-03-01 20:31:00,22.0,15.0,30.31,North,360,3.0,10.0,74,0.00,,,0.00,,2013-03-02 01:31:00,
2013-03-01 20:41:00,22.0,15.0,30.31,North,360,3.0,10.0,74,0.00,,,0.00,,2013-03-02 01:41:00,
2013-03-01 20:52:00,22.0,14.0,30.31,NE,41,3.0,4.0,72,0.00,,,0.00,,2013-03-02 01:52:00,
2013-03-01 21:01:00,22.0,14.0,30.30,North,8,5.0,11.0,71,0.00,,,0.00,,2013-03-02 02:01:00,
2013-03-01 21:11:00,22.0,14.0,30.30,North,8,5.0,11.0,71,0.00,,,0.00,,2013-03-02 02:11:00,
2013-03-01 21:21:00,23.0,14.0,30.30,NNE,23,10.0,12.0,68,0.00,,,0.00,,2013-03-02 02:21:00,
2013-03-01 21:32:00,23.0,13.0,30.30,NNE,20,10.0,12.0,66,0.00,,,0.00,,2013-03-02 02:32:00,
2013-03-01 21:41:00,23.0,13.0,30.30,NNE,20,10.0,12.0,66,0.00,,,0.00,,2013-03-02 02:41:00,
2013-03-01 21:52:00,23.0,13.0,30.29,North,360,4.0,11.0,66,0.00,,,0.00,,2013-03-02 02:52:00,
2013-03-01 22:01:00,23.0,13.0,30.29,NNE,25,10.0,13.0,66,0.00,,,0.00,,2013-03-02 03:01:00,
2013-03-01 22:11:00,23.0,13.0,30.29,NNE,25,10.0,13.0,66,0.00,,,0.00,,2013-03-02 03:11:00,
2013-03-01 22:21:00,23.0,13.0,30.29,NNE,22,10.0,11.0,65,0.00,,,0.00,,2013-03-02 03:21:00,
2013-03-01 22:32:00,24.0,14.0,30.29,NNE,33,10.0,16.0,65,0.00,,,0.00,,2013-03-02 03:32:00,
2013-03-01 22:41:00,24.0,14.0,30.29,NNE,33,10.0,16.0,65,0.00,,,0.00,,2013-03-02 03:41:00,
2013-03-01 22:52:00,22.0,11.0,30.29,NE,49,10.0,11.0,63,0.00,,,0.00,,2013-03-02 03:52:00,
2013-03-01 23:01:00,21.0,10.0,30.29,NE,37,10.0,12.0,62,0.00,,,0.00,,2013-03-02 04:01:00,
2013-03-01 23:11:00,21.0,11.0,30.29,NE,37,11.0,11.0,65,0.00,,,0.00,,2013-03-02 04:11:00,
2013-03-01 23:21:00,21.0,11.0,30.29,NE,37,11.0,11.0,65,0.00,,,0.00,,2013-03-02 04:21:00,
2013-03-01 23:32:00,21.0,11.0,30.29,NE,39,13.0,16.0,66,0.00,,,0.00,,2013-03-02 04:32:00,
2013-03-01 23:42:00,21.0,11.0,30.29,NE,39,13.0,16.0,66,0.00,,,0.00,,2013-03-02 04:42:00,
2013-03-01 23:52:00,21.0,12.0,30.29,NNE,32,13.0,14.0,67,0.00,,,0.00,,2013-03-02 04:52:00,